Location: Castillon
(43.0896°N, 0.2156°E)
Time: 17:17:21
(UTC+00:00)

Cosmos 1954 Rocket - Pass Details

Date: 16 June 2021
Orbit: 752 x 781 km, 74.1° (Epoch: 03 August)

Event Time Altitude Azimuth Distance (km) Brightness Sun altitude
Rises 20:08:25 0° 343° (NNW) 3,276 8.3 -4.9°
Reaches altitude 10° 20:10:51 10° 347° (NNW) 2,345 7.4 -5.2°
Maximum altitude 20:16:07 57° 66° (ENE) 915 4.3 -6.0°
Drops below altitude 10° 20:21:19 10° 146° (SE) 2,326 5.9 -6.7°
Enters shadow 20:21:59 - 147° (SSE) 2,576 6.1 -6.8°
